Location: Lowman
(44.0835°N, 115.6207°W)
Time: 20:52:57
(UTC+00:00)

N. Korean satellite - Visible Passes

Search period start: 08 December 2022 00:00
Search period end: 18 December 2022 00:00
Orbit: 420 x 452 km, 97.3° (Epoch: 08 December)

Date Brightness Start Highest point End Pass type
(mag) Time Alt. Az. Time Alt. Az. Time Alt. Az.
08 Dec 6.3 13:19:03 10° N 13:22:24 60° WNW 13:25:41 10° SSW visible
09 Dec 10.1 01:24:36 10° WSW 01:25:24 11° W 01:26:12 10° WNW visible
09 Dec 7.9 12:40:08 10° NNE 12:43:18 37° E 12:46:25 10° SSE visible
09 Dec 8.2 14:13:45 10° NW 14:15:27 13° WNW 14:17:09 10° W visible
10 Dec 8.6 00:42:57 10° SSW 00:46:02 31° W 00:49:08 10° NNW visible
10 Dec 9.8 12:02:30 10° ENE 12:03:55 12° E 12:05:19 10° ESE visible
10 Dec 6.8 13:33:26 10° N 13:36:36 38° WNW 13:39:42 10° SW visible
11 Dec 6.9 12:54:09 10° NNE 12:57:29 59° E 13:00:45 10° S visible
12 Dec 9.3 00:57:33 10° SSW 01:00:12 21° W 01:02:54 10° NW visible
12 Dec 9.2 12:15:44 10° NE 12:18:05 18° E 12:20:26 10° SE visible
12 Dec 7.4 13:47:45 10° NNW 13:50:34 25° WNW 13:53:21 10° SW visible
13 Dec 6.2 13:08:04 10° NNE 13:11:26 87° WNW 13:14:44 10° SSW visible
14 Dec 9.7 01:12:14 10° SW 01:14:13 15° W 01:16:13 10° NW visible
14 Dec 8.6 12:31:43 25° E 12:32:02 26° E 12:34:51 10° SSE visible
14 Dec 8.0 14:05:07 16° W 14:05:07 16° W 14:06:37 10° WSW visible
15 Dec 7.8 00:31:24 10° S 00:34:40 45° W 00:37:58 10° NNW visible
15 Dec 6.8 13:25:58 41° SW 13:25:58 41° SW 13:28:24 10° SSW visible
16 Dec 8.0 12:46:39 31° SE 12:46:39 31° SE 12:48:51 10° S visible
16 Dec8.814:20:02WSW14:20:02WSW14:14:12NNWvisible
17 Dec 8.7 00:45:19 10° SSW 00:48:21 30° W 00:51:24 10° NNW visible
17 Dec 9.8 12:07:13 11° ESE 12:07:13 11° ESE 12:07:32 10° ESE visible
17 Dec 8.0 13:40:34 19° SW 13:40:34 19° SW 13:41:43 10° SW visible
